Location: Marengo
(51.4813°N, 109.7825°W)
Time: 00:40:46
(UTC+00:00)

Envisat - Pass Details

Date: 27 January 2022
Orbit: 764 x 765 km, 98.2° (Epoch: 22 May)

Event Time Altitude Azimuth Distance (km) Brightness Sun altitude
Rises 13:38:29 0° 7° (N) 3,244 6.2 -13.3°
Reaches altitude 10° 13:41:05 10° 356° (N) 2,314 5.3 -12.9°
Maximum altitude 13:45:18 27° 300° (WNW) 1,440 3.9 -12.2°
Drops below altitude 10° 13:49:31 10° 243° (WSW) 2,302 5.0 -11.6°
Sets 13:52:06 0° 232° (SW) 3,224 5.9 -11.2°
